Reflectivity
-20 -20 -20 -20 -20 -20 -20 -20 -20 -20 -20 -20 -20 -20 -20 -20 -18 32 36 -7 27 5
-20 -20 -20 -20 -20 -20 -20 -20 -20 -20 -20 -20 -20 -20 -18 -1 23 23 39 41 30 -12
-20 -20 -20 -20 -20 -20 -20 -20 -20 -20 -20 -20 -12 -5 -1 4 -11 12 32 21 28 -9
-20 -20 -20 -20 -20 -20 -20 -20 -20 -20 -20 -19 -4 -17 3 6 35 6 7 12 19 14
-20 -20 -20 -20 -20 -20 -20 -20 -20 -20 -20 -20 -1 -15 -3 5 -3 -1 15 5 11 2
-20 -20 -20 -20 -20 -20 -20 -20 -20 -20 -20 -20 0 -8 -11 -20 -1 -20 -20 -3 -12 -13
-20 -20 -20 -20 -20 -20 -20 -20 -20 -20 -20 -20 -20 -12 -2 0 4 -12 1 -10 -1 1
-20 -20 -20 -20 -20 -20 -20 -20 -20 -20 -20 -20 -20 -20 -20 -18 -7 -16 -8 9 7 13
-20 -20 -20 -20 -20 -20 -20 -20 -20 -20 -20 -20 -20 -20 -20 -20 -6 -11 -12 -20 0 13
-20 -20 -20 -20 -20 -20 -20 -20 -20 -20 -20 -20 -20 -20 -20 -20 -3 3 -0 -2 -0 0
-20 -20 -20 -20 -20 -20 -20 -20 -20 -20 -20 -20 -20 -20 -20 -20 -20 6 -0 2 7 8
-20 -20 -20 -20 -20 -20 -20 -20 -20 -20 -20 -20 -20 -20 -20 -20 -20 -11 -1 -3 -17 -18
-20 -20 -20 -20 -20 -20 -20 -20 -20 -20 -20 -20 -20 -11 -20 -3 -20 -20 -20 -20 -20 -20
-20 -20 -20 -20 -20 -20 -20 -20 -20 -20 -20 -20 -20 -14 -18 -17 -20 -20 13 19 -16 -20
Wind_Speed
18 13 13 14 11 10 9 9 10 12 12 13 12 12 12 10 7 2 6 10 10 8
16 16 15 14 12 10 10 8 10 10 11 12 14 13 11 4 7 7 7 12 12 8
17 16 15 12 14 13 12 11 10 12 12 12 8 8 10 9 9 8 8 10 11 10
15 15 14 14 13 13 11 10 10 11 12 9 10 11 11 10 7 10 10 12 11 12
13 13 13 14 14 12 12 10 10 11 11 11 12 10 11 10 8 10 9 10 10 11
13 14 14 14 13 12 12 12 11 11 12 11 11 10 10 10 10 9 9 9 9 10
14 14 13 12 12 11 11 11 11 12 10 10 10 10 9 9 9 9 9 10 11 11
12 12 12 12 11 11 11 11 11 10 10 10 10 9 11 11 10 10 10 10 10 11
11 11 12 12 12 11 11 10 10 10 10 10 8 8 10 10 9 9 9 9 10 10
12 12 12 11 12 12 11 10 10 10 10 10 10 10 12 13 9 9 10 10 9 9
13 12 11 11 11 10 9 10 9 10 10 10 9 11 13 13 11 9 9 9 10 9
15 13 12 11 11 9 9 9 9 9 9 10 9 12 12 11 10 11 11 10 10 10
14 13 13 11 11 9 8 9 7 8 9 9 10 11 13 13 9 11 9 9 10 9
13 12 11 10 7 8 8 7 7 8 8 9 10 10 13 14 10 10 7 8 7 8
Wind_Direction
213 217 219 218 220 219 226 226 221 221 227 229 227 223 221 230 237 268 261 229 226 232
210 216 219 219 217 221 222 226 229 222 224 228 228 228 228 181 212 193 218 241 231 216
210 212 215 213 217 220 222 216 216 224 226 231 221 222 222 220 228 224 231 240 233 226
210 212 213 214 218 221 219 209 212 219 224 224 206 224 229 230 207 220 230 231 238 236
206 205 211 219 217 215 216 205 204 212 224 222 212 213 210 213 208 218 229 237 239 243
205 206 212 216 216 215 212 215 209 220 218 224 222 206 208 213 212 213 220 219 222 235
204 207 211 206 206 206 205 205 210 213 212 211 212 208 208 207 209 215 225 223 219 225
201 202 201 192 190 193 195 198 200 199 204 204 201 201 197 197 204 214 221 229 232 234
188 196 200 184 182 182 186 188 182 191 196 202 215 176 187 200 202 205 218 226 229 237
180 191 201 185 179 180 183 184 189 194 196 205 215 172 190 202 227 218 221 228 232 232
177 187 188 183 187 180 181 189 198 201 199 206 213 181 192 193 224 231 235 239 240 240
170 174 180 185 186 186 185 191 201 208 204 208 220 189 197 194 219 226 232 234 235 230
165 169 176 183 184 184 197 202 203 207 212 212 226 189 197 196 227 229 233 231 239 213
161 167 176 177 176 179 195 206 206 215 219 222 223 228 203 197 224 237 231 232 226 229